sat.trackr.live / text

‹ back to catalog

STARLINK-37259

NORAD 68972 · 2026-099X

PAYLOAD ACTIVE UNKNOWN

§ Identity

Operator
Country
US
Launch date
2026-05-01
Launch site
AFETR
Launch vehicle
Mass (kg)
RCS (m²)

Purposes: comms

External: N2YO · Heavens-Above · Gunter

§ Orbital elements

Epoch: 2026-09-19T19:46:18.049728Z

Period
93.85 min
Inclination
53.1596°
Eccentricity
0.0000505
Mean motion
15.34402762 rev/d
Perigee alt
462.3 km
Apogee alt
463.0 km
Semi-major
6,840.8 km
B*
6.8219e-4
RAAN
78.7385°
Arg perigee
102.0956°
Mean anomaly
258.0103°
Rev number
2,180

§ Raw data

STARLINK-372591 68972U 26099X   26262.82382002  .00022745  00000+0  68219-3 0  99992 68972  53.1596  78.7385 0000505 102.0956 258.0103 15.34402762 21808

JSON: /api/v1/satellites/68972 · /tle

For live sub-satellite position, see the globe view (requires WebGL).

§ Visibility from observer

Set your observer location to see the next 7 days of passes ≥ 10°. The values pass through the URL so the page stays shareable.

No JS? Fill the form by hand. The geolocation button needs JavaScript.